Regional Weather Roundup
Issued by NWS

Home | Current Version | Previous Version | Graphics & Text | Print | Product List | Glossary On
Versions: 1 2 3 4 5 6 7 8 9 10 11 12 13 14 15 16 17 18 19 20 21 22 23 24 25 26 27 28 29 30 31 32 33 34 35 36 37 38 39 40 41 42 43 44 45 46 47 48 49 50
000
ASUS45 KPSR 060800
RWRAZ

ARIZONA REGIONAL HOURLY WEATHER ROUNDUP
NATIONAL WEATHER SERVICE PHOENIX AZ
100 AM MST FRI MAR 06 2015

NOTE: FAIR INDICATES FEW OR NO CLOUDS BELOW 12,000 FEET WITH NO
SIGNIFICANT WEATHER AND/OR OBSTRUCTIONS TO VISIBILITY.

AZZ001>003-036-060900-
NORTHWEST ARIZONA

CITY           SKY/WX    TMP DP  RH WIND       PRES   REMARKS
KINGMAN        CLEAR     40  27  59 E6        30.30F
$$

AZZ004>008-015-016-018-060900-
NORTH CENTRAL ARIZONA

CITY           SKY/WX    TMP DP  RH WIND       PRES   REMARKS
GRAND CANYON   PTCLDY    17  13  84 NE5       30.38F WCI  10
PRESCOTT       CLEAR     31  19  61 SW6       30.32S WCI  25
FLAGSTAFF      NOT AVBL
PAYSON         CLEAR     45  10  24 E8        30.31F
PAGE           CLEAR     37  25  61 CALM      30.38S HAZE
$$

AZZ009>014-017-060900-
NORTHEAST ARIZONA

CITY           SKY/WX    TMP DP  RH WIND       PRES   REMARKS
WINSLOW        NOT AVBL
SAINT JOHNS    CLEAR     29  11  47 S5        30.35S WCI  24
WINDOW ROCK    CLEAR     22  16  78 CALM      30.39F
$$

AZZ023-060900-
GREATER PHOENIX AREA

CITY           SKY/WX    TMP DP  RH WIND       PRES   REMARKS
PHOENIX        CLEAR     61  21  21 E8        30.16F
DEER VALLEY    CLEAR     56  22  26 NE6       30.18S
SCOTTSDALE     CLEAR     58  22  24 W3        30.19F
$$

AZZ027-028-060900-
SOUTHWEST MARICOPA COUNTY AND PINAL COUNTY

CITY           SKY/WX    TMP DP  RH WIND       PRES   REMARKS
CASA GRANDE    CLEAR     57  25  28 NE10      30.17F
$$

AZZ503-504-507>509-060900-
SOUTHEAST ARIZONA

CITY           SKY/WX    TMP DP  RH WIND       PRES   REMARKS
TUCSON         CLEAR     53  22  29 E7        30.20F
NOGALES        CLEAR     46  23  40 E15       30.16F
SAFFORD        CLEAR     45  21  38 SE8       30.29F
$$

AZZ020-021-025-026-031-060900-
SOUTHWEST ARIZONA

CITY           SKY/WX    TMP DP  RH WIND       PRES   REMARKS
YUMA           NOT AVBL
$$

CAZ031-033-041-043-047-048-061-060900-
SOUTHERN CALIFORNIA

CITY           SKY/WX    TMP DP  RH WIND       PRES   REMARKS
DOWNTOWN L.A.  CLEAR     57  30  35 CALM      30.15F
L.A. AIRPORT   CLEAR     58  29  33 E3        30.16S
SAN DIEGO      CLEAR     59  33  37 CALM      30.16R
BURBANK        CLEAR     55  22  27 CALM      30.16F
ONTARIO        CLEAR     56  26  31 N6        30.17R
RIVERSIDE      CLEAR     52  27  38 E5        30.18F
PALM SPRINGS   CLEAR     63  20  19 W3        30.22S
EL CENTRO NAS  CLEAR     52  32  46 W10       30.16F
IMPERIAL       CLEAR     50  36  58 W10       30.16F
BLYTHE         CLEAR     58  29  33 N8        30.18F
$$

NVZ020-UTZ003-060900-
SOUTHERN NEVADA-UTAH

CITY           SKY/WX    TMP DP  RH WIND       PRES   REMARKS
LAS VEGAS      NOT AVBL
SALT LAKE CITY PTCLDY    34  23  64 SE8       30.42S WCI  27
$$

NMZ009-TXZ055-060900-
NEW MEXICO-WEST TEXAS

CITY           SKY/WX    TMP DP  RH WIND       PRES   REMARKS
ALBUQUERQUE    CLEAR     37  11  34 N12       30.37F WCI  29
EL PASO        CLEAR     37  16  42 S3        30.36F
$$


........................KEY........................
SKY/WX - SKY CONDITION/WEATHER
TMP    - TEMPERATURE IN FAHRENHEIT
DP     - DEW POINT IN FAHRENHEIT
RH     - RELATIVE HUMIDITY IN PERCENT
WIND   - DIRECTION AND SPEED IN MILES PER HOUR (MPH)
VRB    - VARIABLE WIND DIRECTION
PRES   - MEAN SEA LEVEL PRESSURE IN INCHES OF MERCURY
         F - FALLING PRESSURE   R - RISING PRESSURE
         S - STEADY PRESSURE
VSB    - VISIBILITY IN MILES
HX     - HEAT INDEX IN FAHRENHEIT
WCI    - WIND CHILL INDEX IN FAHRENHEIT
TC     - TEMPERATURE IN CELSIUS WHICH IS ALSO KNOWN AS
         TEMPERATURE IN CENTIGRADE
AFB    - AIR FORCE BASE
         LUKE AFB IS LUKE AIR FORCE BASE
         DAVIS-MONTHAN IS DAVIS-MONTHAN AIR FORCE BASE
NAS    - NAVAL AIR STATION
         EL CENTRO NAS IS EL CENTRO NAVAL AIR STATION
N/A    - NOT AVAILABLE



USA.gov is the U.S. government's official web portal to all federal, state and local government web resources and services.